Memphis, TN

5:36 PM CDT on May 24, 2017 (GMT -0500)
Memphis International

Weather History for KMEM - December, 2011

Change the Weather History Date:

Friday, December 30, 2011

  Actual Average Record
Temperature  
Mean Temperature 55 °F 41 °F  
Max Temperature 61 °F 50 °F 73 °F (1951)
Min Temperature 48 °F 33 °F 3 °F (1876)
Degree Days  
Heating Degree Days 10 24  
Month to date heating degree days 553 643  
Since 1 July heating degree days 988 1142  
Cooling Degree Days 0 0  
Month to date cooling degree days 0 0  
Year to date cooling degree days 2564 2256  
Growing Degree Days 4 (Base 50)    
Moisture  
Dew Point 45 °F    
Average Humidity 69    
Maximum Humidity 86    
Minimum Humidity 51    
Precipitation  
Precipitation 0.00 in 0.16 in 3.57 in (1931)
Month to date precipitation 8.55 5.58  
Year to date precipitation 58.36 53.52  
Snow  
Snow 0.00 in 0.00 in 1.40 in (1895)
Month to date snowfall 1.3 0.2  
Since 1 July snowfall 1.4 0.2  
Snow Depth 0.00 in    
Sea Level Pressure  
Sea Level Pressure 29.91 in    
Wind  
Wind Speed 10 mph (SW)    
Max Wind Speed 18 mph    
Max Gust Speed 30 mph    
Visibility 10 miles    
Events      
T = Trace of Precipitation, MM = Missing Value Source: NWS Daily Summary

Daily Weather History Graph

Daily Weather History Graph

Search for Another Location

Airport or City:

Trip Planner

Search our weather history database for the weather conditions in past years. The results will help you decide how hot, cold, wet, or windy it might be!

Date:

Astronomy

Dec. 30, 2011 Rise Set
Actual Time 7:07 AM CST 4:57 PM CST
Civil Twilight 6:39 AM CST 5:25 PM CST
Nautical Twilight 6:07 AM CST 5:57 PM CST
Astronomical Twilight 5:36 AM CST 6:27 PM CST
Moon 10:41 AM CST (12/30) 11:16 PM CST (12/30)
Length of Visible Light 10h 46m
Length of Day
9h 49m
Waxing Crescent, 36% of the Moon is Illuminated
Dec 30
Waxing Crescent
Jan 1
First Quarter
Jan 9
Full
Jan 16
Last Quarter
Jan 23
New

Hourly Weather History & Observations

Time (CST) Temp. Dew Point Humidity Pressure Visibility Wind Dir Wind Speed Gust Speed Precip Events Conditions
12:54 AM 51.1 °F 46.0 °F 83% 29.86 in 10.0 mi SSW 13.8 mph 20.7 mph N/A   Clear
1:54 AM 50.0 °F 45.0 °F 83% 29.86 in 10.0 mi SSW 8.1 mph - N/A   Clear
2:54 AM 48.0 °F 44.1 °F 86% 29.85 in 10.0 mi South 10.4 mph - N/A   Clear
3:54 AM 51.1 °F 45.0 °F 80% 29.86 in 10.0 mi South 12.7 mph - N/A   Mostly Cloudy
4:54 AM 52.0 °F 46.0 °F 80% 29.86 in 10.0 mi SSW 9.2 mph - N/A   Mostly Cloudy
6:54 AM 52.0 °F 46.9 °F 83% 29.86 in 10.0 mi SSW 10.4 mph - N/A   Scattered Clouds
7:30 AM 51.8 °F 48.2 °F 88% 29.88 in 10.0 mi SSW 12.7 mph - N/A   Mostly Cloudy
7:54 AM 53.1 °F 48.9 °F 86% 29.88 in 10.0 mi SW 13.8 mph 21.9 mph N/A   Overcast
8:20 AM 53.6 °F 50.0 °F 88% 29.89 in 10.0 mi SW 16.1 mph 24.2 mph N/A   Overcast
8:42 AM 55.4 °F 50.0 °F 82% 29.89 in 10.0 mi SW 15.0 mph 23.0 mph N/A   Mostly Cloudy
8:54 AM 55.9 °F 48.9 °F 77% 29.89 in 10.0 mi SW 17.3 mph 24.2 mph N/A   Mostly Cloudy
9:54 AM 55.9 °F 48.0 °F 75% 29.90 in 10.0 mi SW 11.5 mph 20.7 mph N/A   Overcast
10:54 AM 57.9 °F 48.0 °F 70% 29.90 in 10.0 mi WSW 12.7 mph 19.6 mph N/A   Overcast
11:54 AM 55.9 °F 48.0 °F 75% 29.88 in 10.0 mi WSW 12.7 mph - N/A   Overcast
12:54 PM 57.2 °F 46.4 °F 67% 29.89 in 10.0 mi SW 15.0 mph 19.6 mph N/A   Mostly Cloudy
1:54 PM 59.0 °F 45.0 °F 60% 29.88 in 10.0 mi WSW 10.4 mph - N/A   Partly Cloudy
2:54 PM 60.1 °F 42.1 °F 51% 29.89 in 10.0 mi WSW 12.7 mph 20.7 mph N/A   Partly Cloudy
3:54 PM 60.1 °F 42.1 °F 51% 29.90 in 10.0 mi WSW 11.5 mph 18.4 mph N/A   Clear
4:54 PM 57.0 °F 42.1 °F 57% 29.92 in 10.0 mi WSW 9.2 mph - N/A   Clear
5:54 PM 55.0 °F 45.0 °F 69% 29.92 in 10.0 mi SW 9.2 mph - N/A   Clear
6:54 PM 52.0 °F 44.1 °F 74% 29.94 in 10.0 mi SSW 8.1 mph - N/A   Clear
7:54 PM 53.1 °F 42.1 °F 66% 29.96 in 10.0 mi SW 8.1 mph - N/A   Clear
8:54 PM 52.0 °F 41.0 °F 66% 29.98 in 10.0 mi SW 8.1 mph - N/A   Clear
9:54 PM 52.0 °F 39.9 °F 63% 29.99 in 10.0 mi WSW 6.9 mph - N/A   Clear
10:54 PM 50.0 °F 39.0 °F 66% 30.01 in 10.0 mi WSW 5.8 mph - N/A   Partly Cloudy
11:54 PM 50.0 °F 37.9 °F 63% 30.00 in 10.0 mi Calm Calm - N/A   Mostly Cloudy